Regional Weather Roundup
Issued by NWS

Home | Current Version | Previous Version | Text Only | Print | Product List | Glossary On
Versions: 1 2 3 4 5 6 7 8 9 10 11 12 13 14 15 16 17 18 19 20 21 22 23 24 25 26 27 28 29 30 31 32 33 34 35 36 37 38 39 40 41 42 43 44 45 46 47 48 49 50
000
ASUS46 KSEW 241010
RWRWA

WASHINGTON REGIONAL WEATHER ROUNDUP
NATIONAL WEATHER SERVICE SEATTLE WA
300 AM PDT FRI MAR 24 2017

NOTE:"FAIR" INDICATES FEW OR NO CLOUDS BELOW 12,000 FEET WITH NO
SIGNIFICANT WEATHER AND/OR OBSTRUCTIONS TO VISIBILITY.

WAZ507-509-555>559-241100-
SEATTLE, TACOMA, EVERETT, AND VICINITY

CITY           SKY/WX    TMP DP  RH WIND       PRES   REMARKS
EVERETT        CLOUDY    44  43  96 VRB6      29.81F
BOEING FIELD   CLOUDY    46  46 100 E5        29.82F
RENTON         CLOUDY    46  46 100 W3        29.82F
SEATAC AIRPORT CLOUDY    46  44  93 E5        29.82F
JBLM-MCCHORD   CLOUDY    45  45 100 CALM      29.81F
PUYALLUP       DRIZZLE   45  45 100 CALM      29.81F
BREMERTON      CLOUDY    41  39  93 CALM      29.85F
JBLM-FT LEWIS  MOCLDY    45  45 100 CALM      29.81F
TACOMA NARROWS CLOUDY    44  44 100 CALM      29.82F
$$

WAZ001-503-506-510-514-515-241100-
NORTH INTERIOR

CITY           SKY/WX    TMP DP  RH WIND       PRES   REMARKS
BELLINGHAM     CLOUDY    47  43  86 SE10      29.80F
FRIDAY HARBOR  CLOUDY    46  40  79 SE13      29.79F
EASTSOUND      MOCLDY    46  41  81 S9G18     29.76F
PORT ANGELES   PTCLDY    39  38  96 S7        29.74S
EDIZ HOOK      DRIZZLE   44  40  84 SW8       29.74F
PORT TOWNSEND  CLOUDY    43  41  93 SE5       29.80F
NAS WHIDBEY    MOCLDY    47  41  80 SE13      29.84F
ARLINGTON      CLOUDY    46  37  71 CALM      29.84F
BURLINGTON     CLOUDY    46  43  87 E6        29.82F
$$

WAZ020-022-039-040-504-511-512-241100-
SOUTHWEST INTERIOR

CITY           SKY/WX    TMP DP  RH WIND       PRES   REMARKS
SHELTON        LGT RAIN  43  41  93 N6        29.79F FOG
OLYMPIA        LGT RAIN  45  45 100 CALM      29.82F
CHEHALIS       CLOUDY    46  46 100 S5        29.81F
KELSO          LGT RAIN  48  46  93 S7        29.83F
VANCOUVER      LGT RAIN  47  47 100 SE10      29.84F
SCAPPOOSE, OR  LGT RAIN  47  46  97 SE6       29.83F FOG
PORTLAND, OR   LGT RAIN  47  46  97 SE15      29.85F
$$

WAZ021-516-517-241100-
WASHINGTON COAST

CITY           SKY/WX    TMP DP  RH WIND       PRES   REMARKS
FORKS          CLOUDY    46  44  93 S13G18    29.72F
HOQUIAM        CLOUDY    46  46 100 NE9       29.77F
ASTORIA, OR    CLOUDY    50  46  86 S12G23    29.77F
$$

WAZ019-023-024-040-567>569-241100-
CASCADE MOUNTAINS AND COLUMBIA GORGE

CITY           SKY/WX    TMP DP  RH WIND       PRES   REMARKS
STAMPEDE PASS  NOT AVBL
TROUTDALE, OR  LGT RAIN  48  44  86 E12       29.86F
THE DALLES, OR LGT RAIN  47  45  93 CALM      29.91F
$$

WAZ026-027-041>044-520-521-241100-
EAST SLOPES

CITY           SKY/WX    TMP DP  RH WIND       PRES   REMARKS
OMAK           LGT RAIN  40  35  83 SW6       29.97S
WENATCHEE      LGT RAIN  40  39  97 W7        29.93F
ELLENSBURG     LGT RAIN  42  36  79 NE7       29.91S
YAKIMA         CLOUDY    46  40  79 W7        29.91F
SUNNYSIDE ARPT DRIZZLE   44  39  81 CALM      29.91F
$$

WAZ028-034-035-241100-
COLUMBIA BASIN

CITY           SKY/WX    TMP DP  RH WIND       PRES   REMARKS
EPHRATA        CLOUDY    43  30  60 N9        29.90F
MOSES LAKE     CLOUDY    42  34  73 N8        29.91F
PASCO          LGT RAIN  45  39  79 SE5       29.92F
HERMISTON, OR  LGT RAIN  46  43  89 S7        29.91S
$$

WAZ036>038-241100-
NORTHEAST WASHINGTON

CITY           SKY/WX    TMP DP  RH WIND       PRES   REMARKS
SPOKANE GEIGER CLOUDY    38  28  67 NE8       29.92F
SPOKANE FELTS  CLOUDY    39  31  72 SE7       29.94F
FAIRCHILD AFB  CLOUDY    37  30  77 E12       29.91F
COEURDALENE,ID CLOUDY    33  29  85 NE9       29.96F
DEER PARK      CLOUDY    38  27  64 N9        29.95F
$$

WAZ029>033-241100-
SOUTHEAST WASHINGTON

CITY           SKY/WX    TMP DP  RH WIND       PRES   REMARKS
PULLMAN        MOCLDY    40  29  64 E16       29.94F
LEWISTON, ID   MOCLDY    42  33  70 E7        29.96F
WALLA WALLA    CLOUDY    47  37  68 W9        29.91R
PENDLETON, OR  LGT RAIN  44  39  82 N7        29.91S
$$



USA.gov is the U.S. government's official web portal to all federal, state and local government web resources and services.